Preview of NWS' New Version of Forecast
This preview is not operational and should not be used for support decisions.

Regional Weather Roundup (RWR)

Issued by Philadelphia/Mt Holly (PHI)

                            
000
ASUS41 KPHI 202312
RWRPHI

REGIONAL WEATHER ROUNDUP
NATIONAL WEATHER SERVICE MOUNT HOLLY NJ
700 PM EDT WED MAR 20 2019

NOTE:  "FAIR" INDICATES FEW OR NO CLOUDS BELOW 12,000 FEET WITH NO
SIGNIFICANT WEATHER AND/OR OBSTRUCTIONS TO VISIBILITY.

 * = STATION DOES NOT REPORT PRECIPITATION (E.G. RAIN, SNOW, ETC.) 
        OR FOG.

NJZ015>026-210000-
SOUTHERN NEW JERSEY
  
CITY           SKY/WX    TMP DP  RH WIND       PRES   REMARKS
POMONA         FAIR      44  36  73 E10       30.30S                  
WILDWOOD*      MOCLDY    45  37  73 E7        30.29F                  
MILLVILLE      FAIR     N/A N/A N/A SE8       30.28F                  
WRIGHTSTOWN    FAIR      45  29  53 S9        30.27S                  
MOUNT HOLLY    FAIR      46  31  55 SE7G18    30.30R                  
TRENTON        FAIR      46  28  49 S14G21    30.28R                  

$$
NJZ001>014-210000-
NORTHERN NEW JERSEY
  
CITY           SKY/WX    TMP DP  RH WIND       PRES   REMARKS
SUSSEX         FAIR      49  21  33 S7        30.24S                  
ANDOVER*         N/A     48  18  30 VRB5      30.24R                  
MORRISTOWN     MOCLDY    48  23  37 S12G22    30.27R                  
NEWARK         CLOUDY    46  30  53 S13G21    30.29R                  
TETERBORO      FAIR      46  29  51 S17       30.28S                  
CALDWELL       FAIR      47  26  44 S12       30.27S                  
SOMERVILLE     FAIR      48  23  37 MISG      30.25R                  
ALLAIRE*       FAIR      42  33  70 SE7       30.32S                  
TOMS RIVER*    FAIR      44  35  70 SE6       30.32R                  

$$
PAZ043-044-047-054-055-060>062-066>071-210000-
EASTERN PENNSYLVANIA
  
CITY           SKY/WX    TMP DP  RH WIND       PRES   REMARKS
PHILADELPHIA   CLOUDY    48  29  47 SE12      30.29R                  
NORTH PHILA    FAIR      49  29  46 SE15G23   30.30R                  
BLUE BELL*     FAIR      46  23  39 S9        30.28R                  
DOYLESTOWN     FAIR      47  24  40 SE10G17   30.25R                  
QUAKERTOWN*    CLEAR     48  21  34 S6        30.24                   
PERKASIE*      FAIR      48  18  29 S6        30.25S                  
POTTSTOWN      FAIR      47  22  37 S5        30.27R                  
LANCASTER      FAIR      49  23  36 SE14      30.23S                  
COATESVILLE    FAIR      45  25  45 VRB7G14   30.26S                  
READING        FAIR      48  18  30 S13       30.23R                  
ALLENTOWN      FAIR      51  18  27 S10       30.23S                  
MOUNT POCONO   FAIR      41  17  38 S8        30.18S                  
HAZLETON       FAIR      43  18  36 S5        30.22R                  
LEHIGHTON      FAIR      48  14  25 S7        30.23S                  
WILKES BARRE   FAIR      48  18  30 S8        30.19R                  

$$
DEZALL-MDZ008-012-015-019-020-210000-
DELAWARE AND EASTERN MARYLAND
  
CITY           SKY/WX    TMP DP  RH WIND       PRES   REMARKS
WILMINGTON     FAIR      47  33  58 S12       30.28S                  
DOVER          FAIR      45  35  67 E9        30.28S                  
GEORGETOWN     CLOUDY    49  35  58 E8        30.27F                  
EASTON         PTCLDY    50  34  53 SE12      30.29S                  
ABERDEEN       CLOUDY    48  23  37 E14       30.27S                  
PATUXENT       MOCLDY    48  34  58 E3        30.25                   
OCEAN CITY     CLOUDY    46  38  73 NE6       30.26S                  
WALLOPS ISLAND LGT RAIN  48  40  73 NE13      30.25F                  
CAMBRIDGE      CLOUDY    50  34  53 E9G15     30.25S                  
SALISBURY      CLOUDY    48  36  63 E8        30.26S                  

$$
PAZ001-021-NYZ056-072-MDZ011-DCZ001-210000-
OTHER NEARBY LOCATIONS
  
CITY           SKY/WX    TMP DP  RH WIND       PRES   REMARKS
HARRISBURG     CLOUDY    49  24  37 SE12      30.22R                  
STATE COLLEGE  CLEAR     46  19  34 S12       30.15R                  
WILLIAMSPORT   FAIR      50  18  28 E5        30.17S                  
BINGHAMTON     MOCLDY    44  16  32 SW10G21   30.13S                  
NEW YORK CITY  FAIR      46  28  49 VRB3      30.32S                  
BALTIMORE      CLOUDY    49  25  39 E8        30.23F                  
WASHINGTON DC  CLOUDY    52  25  35 SE9       30.24S                  

$$